[[{"header":{"parameterUnit":"m.s-1","parameterCategory":1,"la1":30.2991,"la2":30.254,"lo1":-89.0895,"lo2":-89.0444,"dy":0.0017,"dx":0.0017,"nx":28,"ny":28,"refTime":"2025-09-14T03:00:00:Z","depth":0,"parameterNumber":2,"parameterNumberName":"U-component_of_WINDS"},"data":[0,0,0,0,0,0,0,0,0,0,0,0,0,0,0,0,0,0,0,0,0,0,0,0,0,0,0,0,0,0,0,0,0,0,0,0,0,0,0,0,0,0,0,0,0,0,0,0,0,0,0,0,0,0,0,0,0,0,-1.9578,-1.9579,0,-1.9627,-1.9628,-1.9628,-1.9634,-1.9634,-1.9634,-1.9633,-1.9682,-1.9683,-1.9685,0,0,0,0,0,0,0,0,0,0,0,0,0,-1.9491,-1.9492,-1.9578,-1.9579,-1.958,-1.9627,-1.9628,-1.9628,-1.9635,-1.9634,-1.9633,-1.9633,-1.9681,-1.9683,-1.9685,0,0,0,0,0,0,0,0,0,0,0,0,0,-1.9533,-1.9493,-1.9578,-1.9588,-1.959,-1.9627,-1.9628,-1.9628,-1.9635,-1.9634,-1.9633,-1.9633,-1.9681,-1.9683,-1.9686,-1.9715,0,0,-1.9693,-1.9695,0,0,0,0,0,0,0,0,-1.9531,-1.9536,-1.9586,-1.9588,-1.959,-1.9624,-1.9615,-1.9658,-1.9635,-1.9618,-1.9633,-1.9632,-1.9663,-1.9667,-1.9678,-1.9718,-1.972,-1.9694,-1.9695,-1.9696,-1.9697,0,0,0,0,0,0,0,-1.9528,-1.9534,-1.9598,-1.9587,-1.9589,-1.9591,-1.9596,-1.9623,-1.9644,-1.9619,-1.962,-1.9625,-1.9664,-1.9675,-1.9679,-1.972,-1.9694,-1.9696,-1.9698,-1.9699,-1.9789,-1.9789,0,0,0,0,0,0,-1.9523,-1.9532,-1.9596,-1.9599,-1.9558,-1.9593,-1.9599,-1.9614,-1.9643,-1.9647,-1.9626,-1.9626,-1.9671,-1.9676,-1.9681,-1.9718,-1.9696,-1.9699,-1.97,-1.9788,-1.9789,-1.979,0,0,0,0,0,0,-1.9521,-1.9529,-1.9594,-1.9566,-1.9574,-1.9595,-1.9612,-1.9615,-1.9626,-1.9649,-1.9652,-1.9634,-1.9671,-1.9677,-1.9707,-1.972,-1.97,-1.9702,-1.9787,-1.9788,-1.9789,-1.9792,0,0,0,0,0,0,-1.9518,-1.9528,-1.9539,-1.9566,-1.9576,-1.962,-1.9613,-1.9616,-1.9631,-1.9631,-1.9657,-1.966,-1.9671,-1.9703,-1.971,-1.9723,-1.9704,-1.9786,-1.9787,-1.9789,-1.9791,-1.9794,-1.9796,0,0,0,0,0,-1.9515,-1.9538,-1.954,-1.9548,-1.959,-1.962,-1.9626,-1.9638,-1.9632,-1.9644,-1.9658,-1.966,-1.9717,-1.9706,-1.9713,-1.9728,-1.9785,-1.9787,-1.9789,-1.979,-1.9793,-1.9796,0,0,0,0,0,0,-1.9511,-1.9541,-1.9544,-1.9576,-1.9596,-1.9621,-1.9636,-1.964,-1.9662,-1.966,-1.9674,-1.968,-1.9709,-1.9722,-1.9708,-1.9759,-1.9751,-1.9754,-1.9749,-1.9752,-1.9754,-1.975,-1.9706,0,0,0,0,0,-1.9514,-1.9537,-1.9562,-1.9587,-1.9597,-1.9615,-1.9629,-1.9636,-1.9657,-1.9665,-1.9682,-1.9702,-1.9725,-1.9739,-1.9761,-1.9793,-1.9799,-1.9807,-1.9809,-1.9811,-1.9813,-1.9832,-1.9836,-1.9796,-1.9796,-1.9796,0,0,-1.952,-1.954,-1.9553,-1.9587,-1.9603,-1.9626,-1.9622,-1.9646,-1.9663,-1.9669,-1.9698,-1.9711,-1.9735,-1.9766,-1.9781,-1.9777,-1.9826,-1.9813,-1.9814,-1.9816,-1.9834,-1.9838,-1.9841,-1.9797,-1.9797,-1.9797,0,0,-1.9543,-1.956,-1.9583,-1.96,-1.9625,-1.9637,-1.9643,-1.9669,-1.9678,-1.9708,-1.9713,-1.9733,-1.9772,-1.9789,-1.9802,-1.9833,-1.9835,-1.984,-1.9851,-1.9869,-1.9872,-1.9875,-1.9886,-1.989,-1.9843,-1.9843,-1.9843,0,-1.9547,-1.9582,-1.9595,-1.9619,-1.9634,-1.9641,-1.9665,-1.9681,-1.9712,-1.9722,-1.9718,-1.9768,-1.9784,-1.9819,-1.9827,-1.9838,-1.9845,-1.9837,-1.9871,-1.9874,-1.9877,-1.9887,-1.9891,-1.9843,-1.9843,-1.9843,-1.9843,0,-1.9586,-1.961,-1.9626,-1.9656,-1.9673,-1.9697,-1.9714,-1.973,-1.9736,-1.9749,-1.978,-1.98,-1.9826,-1.9836,-1.9841,-1.9872,-1.987,-1.9868,-1.986,-1.9881,-1.9891,-1.9895,-1.9844,-1.9843,-1.9843,-1.9843,0,0,-1.9606,-1.9644,-1.965,-1.9664,-1.9693,-1.9712,-1.9737,-1.9763,-1.9777,-1.9798,-1.9819,-1.9853,-1.9852,-1.9867,-1.9875,-1.9891,-1.9915,-1.9888,-1.9889,-1.9892,-1.9951,-1.9951,-1.9956,-1.9917,-1.9918,-1.9918,-1.9949,0,-1.9631,-1.9676,-1.9689,-1.9726,-1.9749,-1.9757,-1.9779,-1.9799,-1.9812,-1.9833,-1.9847,-1.9871,-1.9868,-1.9877,-1.9893,-1.9908,-1.9927,-1.9907,-1.9936,-1.9937,-1.993,-1.9961,-1.9962,-1.9989,-1.9953,-1.9953,-1.9954,0,-1.9667,-1.969,-1.973,-1.9757,-1.9767,-1.9786,-1.9812,-1.9832,-1.9856,-1.9864,-1.9882,-1.9889,-1.9916,-1.9907,-1.9944,-1.993,-1.9943,-1.9953,-1.9954,-1.9957,-1.9946,-1.9964,-1.9998,-2.0002,-1.996,-1.996,-1.9959,0,-1.9678,-1.9719,-1.9748,-1.976,-1.9792,-1.9806,-1.982,-1.9842,-1.9858,-1.9881,-1.9891,-1.9917,-1.9931,-1.995,-1.9965,-1.9957,-2.0,-1.9993,-2.0008,-2.0007,-2.0016,-2.0015,-2.0052,-2.0025,-2.0025,-2.0025,-2.0025,0,-1.9705,-1.9729,-1.9753,-1.9771,-1.9798,-1.9814,-1.984,-1.9855,-1.9875,-1.9896,-1.9905,-1.9924,-1.9942,-1.9964,-1.9976,-2.0004,-2.0011,-2.0018,-2.0021,-2.0017,-2.0016,-2.0025,-2.0024,-2.0026,-2.0026,-2.0026,-2.0025,0,-1.9721,-1.9738,-1.9771,-1.9799,-1.9807,-1.9826,-1.985,-1.9868,-1.9882,-1.9908,-1.9916,-1.9937,-1.9964,-1.998,-2.0013,-2.0021,-2.0053,-2.0055,-2.0045,-2.0046,-2.006,-2.0059,-2.0104,-2.0111,-2.008,-2.008,-2.008,0,-1.9736,-1.9755,-1.9786,-1.9801,-1.9816,-1.984,-1.9856,-1.9872,-1.9889,-1.9918,-1.9932,-1.996,-1.9982,-2.0024,-2.0043,-2.0069,-2.0071,-2.0085,-2.0075,-2.0071,-2.0071,-2.007,-2.0072,-2.0087,-2.0087,-2.0087,-2.0087,0,-1.9763,-1.9771,-1.9794,-1.9821,-1.9841,-1.9862,-1.9884,-1.9896,-1.9916,-1.9934,-1.9962,-1.998,-2.0014,-2.0041,-2.0069,-2.0084,-2.0089,-2.0091,-2.0096,-2.0092,-2.0085,-2.0089,-2.0049,-2.0089,-2.0089,-2.0089,-2.0089,-2.0089,-1.9779,-1.9796,-1.9821,-1.9847,-1.9866,-1.9886,-1.9905,-1.9922,-1.9945,-1.9975,-1.9983,-2.0012,-2.0036,-2.0074,-2.0089,-2.0112,-2.011,-2.0117,-2.0119,-2.012,-2.0121,-2.0082,-2.0118,-2.0118,-2.0118,-2.0117,-2.0117,0,-1.9806,-1.9822,-1.9846,-1.9877,-1.9898,-1.9902,-1.9927,-1.9944,-1.9969,-1.9991,-2.0014,-2.0046,-2.0073,-2.0094,-2.0122,-2.0136,-2.0139,-2.0143,-2.0141,-2.0145,-2.0121,-2.0114,-2.014,-2.014,-2.014,-2.014,-2.014,-2.014,-1.9822,-1.9852,-1.9863,-1.9902,-1.9919,-1.9948,-1.9962,-1.9981,-1.9999,-2.0034,-2.0057,-2.0071,-2.0093,-2.0123,-2.0147,-2.0153,-2.0163,-2.0166,-2.0172,-2.0149,-2.0146,-2.0144,-2.0138,-2.0168,-2.0168,-2.0194,-2.0194,-2.0194]},{"header":{"parameterUnit":"m.s-1","parameterCategory":1,"la1":30.2991,"la2":30.254,"lo1":-89.0895,"lo2":-89.0444,"dy":0.0017,"dx":0.0017,"nx":28,"ny":28,"refTime":"2025-09-14T03:00:00:Z","depth":0,"parameterNumber":3,"parameterNumberName":"V-component_of_WINDS"},"data":[0,0,0,0,0,0,0,0,0,0,0,0,0,0,0,0,0,0,0,0,0,0,0,0,0,0,0,0,0,0,0,0,0,0,0,0,0,0,0,0,0,0,0,0,0,0,0,0,0,0,0,0,0,0,0,0,0,0,0.8855,0.8855,0,0.8837,0.8836,0.8836,0.8857,0.8858,0.8859,0.886,0.8838,0.8836,0.8835,0,0,0,0,0,0,0,0,0,0,0,0,0,0.8906,0.8904,0.8855,0.8855,0.8854,0.8837,0.8836,0.8836,0.8857,0.8858,0.8859,0.886,0.8838,0.8837,0.8835,0,0,0,0,0,0,0,0,0,0,0,0,0,0.8885,0.8904,0.8855,0.8863,0.8863,0.8837,0.8836,0.8836,0.8857,0.8858,0.8859,0.886,0.8839,0.8837,0.8835,0.8799,0,0,0.8829,0.8828,0,0,0,0,0,0,0,0,0.8886,0.8883,0.8862,0.8862,0.8863,0.8851,0.8846,0.8823,0.8857,0.8859,0.886,0.8861,0.8841,0.8839,0.8833,0.8797,0.8797,0.8828,0.8827,0.8826,0.8826,0,0,0,0,0,0,0,0.8887,0.8884,0.8848,0.8862,0.8862,0.8866,0.8865,0.8842,0.8843,0.8859,0.8861,0.8858,0.8841,0.8834,0.8832,0.8796,0.8829,0.8827,0.8826,0.8825,0.8731,0.873,0,0,0,0,0,0,0.8888,0.8885,0.8848,0.8847,0.8878,0.8865,0.8863,0.8853,0.8844,0.8844,0.8857,0.8859,0.8837,0.8834,0.8831,0.8788,0.8826,0.8825,0.8823,0.8732,0.8731,0.8729,0,0,0,0,0,0,0.8889,0.8885,0.8849,0.8866,0.8862,0.8863,0.8851,0.8852,0.8845,0.8842,0.8842,0.885,0.8838,0.8834,0.8807,0.8788,0.8824,0.8822,0.8734,0.8732,0.873,0.8702,0,0,0,0,0,0,0.8891,0.8885,0.8872,0.8866,0.8861,0.8825,0.885,0.8851,0.8842,0.8845,0.8836,0.8835,0.8839,0.881,0.8805,0.8786,0.882,0.8735,0.8733,0.873,0.8704,0.8699,0.8695,0,0,0,0,0,0.8892,0.8864,0.8871,0.8866,0.8845,0.8824,0.8821,0.8826,0.8841,0.8827,0.8825,0.8836,0.8791,0.8807,0.8801,0.8781,0.8737,0.8733,0.8731,0.8707,0.87,0.8695,0,0,0,0,0,0,0.8866,0.8863,0.8871,0.884,0.8832,0.8828,0.881,0.8819,0.8807,0.8809,0.8816,0.8813,0.8784,0.878,0.8798,0.8746,0.8766,0.8762,0.875,0.8743,0.8739,0.874,0.8819,0,0,0,0,0,0.8857,0.8841,0.8839,0.8812,0.8808,0.881,0.8801,0.8806,0.8798,0.8794,0.879,0.8781,0.8765,0.8754,0.8739,0.8705,0.8703,0.8688,0.8683,0.8679,0.8675,0.8657,0.865,0.872,0.872,0.872,0,0,0.8837,0.8834,0.8823,0.8807,0.8801,0.8784,0.8807,0.8787,0.8775,0.8791,0.8765,0.8762,0.8752,0.8721,0.8707,0.8717,0.8656,0.8676,0.8673,0.8671,0.8653,0.8646,0.8641,0.8718,0.8718,0.8718,0,0,0.8792,0.8788,0.8765,0.876,0.8752,0.8754,0.8748,0.8742,0.8741,0.8716,0.8728,0.8712,0.8685,0.8677,0.867,0.8624,0.8633,0.8619,0.8593,0.8574,0.8569,0.8564,0.8547,0.8541,0.8615,0.8615,0.8615,0,0.8768,0.8744,0.8752,0.8732,0.8724,0.874,0.8716,0.871,0.8697,0.8691,0.8703,0.8669,0.8663,0.8631,0.862,0.8613,0.8607,0.8619,0.8569,0.8564,0.856,0.8544,0.8537,0.8613,0.8613,0.8613,0.8614,0,0.8715,0.8698,0.868,0.8668,0.8659,0.8637,0.8641,0.863,0.8636,0.8637,0.861,0.8605,0.8589,0.8582,0.8587,0.855,0.8556,0.8568,0.8588,0.8551,0.8536,0.853,0.8611,0.8611,0.8612,0.8612,0,0,0.8651,0.8646,0.8639,0.8634,0.8627,0.8613,0.8593,0.8579,0.8569,0.856,0.8542,0.8519,0.853,0.8522,0.8527,0.8511,0.8474,0.8525,0.8525,0.8515,0.8432,0.8423,0.8415,0.8481,0.848,0.8479,0.8433,0,0.8606,0.857,0.8578,0.8543,0.8527,0.8542,0.8524,0.8517,0.8517,0.8503,0.8503,0.8486,0.8503,0.8498,0.8483,0.8482,0.8457,0.8485,0.8463,0.8462,0.8464,0.8408,0.8397,0.8354,0.8427,0.8426,0.8425,0,0.8548,0.8538,0.8502,0.8498,0.8492,0.8475,0.8463,0.845,0.8443,0.8444,0.8435,0.8443,0.8422,0.8443,0.8413,0.8432,0.8424,0.8422,0.842,0.8417,0.8441,0.8402,0.8341,0.8334,0.8416,0.8417,0.8418,0,0.8504,0.8482,0.8458,0.8453,0.8448,0.8436,0.8433,0.8428,0.8419,0.8408,0.8403,0.8389,0.8381,0.8371,0.8375,0.839,0.8344,0.8366,0.8343,0.8343,0.8332,0.8332,0.8267,0.8328,0.8328,0.8328,0.8328,0,0.8452,0.8429,0.8438,0.8423,0.8398,0.8406,0.8381,0.838,0.8375,0.8359,0.8371,0.8356,0.8363,0.8348,0.8351,0.8326,0.8322,0.8322,0.8323,0.8321,0.832,0.8314,0.8317,0.8327,0.8327,0.8327,0.8328,0,0.8399,0.8404,0.8378,0.8376,0.8375,0.8357,0.8355,0.834,0.8342,0.8322,0.8318,0.832,0.8303,0.8307,0.8288,0.829,0.8258,0.8263,0.8261,0.8262,0.8239,0.8241,0.8167,0.8157,0.8225,0.8225,0.8224,0,0.8365,0.8348,0.8345,0.8336,0.8332,0.8318,0.8309,0.8317,0.8308,0.8299,0.8286,0.827,0.8258,0.8231,0.823,0.8216,0.822,0.8196,0.8218,0.8216,0.8219,0.822,0.8218,0.819,0.819,0.8189,0.8189,0,0.8304,0.8307,0.8295,0.8284,0.8274,0.8266,0.8258,0.825,0.8258,0.8246,0.823,0.8221,0.8203,0.8187,0.8174,0.8171,0.818,0.8182,0.8176,0.8172,0.8171,0.8171,0.8248,0.8183,0.8183,0.8184,0.8184,0.8184,0.8258,0.8244,0.824,0.8226,0.8222,0.8215,0.8201,0.8202,0.8189,0.8176,0.8181,0.8162,0.8156,0.814,0.8135,0.812,0.8129,0.8121,0.8118,0.8116,0.8113,0.8175,0.8118,0.8118,0.8118,0.8118,0.8118,0,0.8197,0.8196,0.8183,0.8173,0.8162,0.8174,0.8167,0.8157,0.8141,0.8134,0.8123,0.8105,0.809,0.8089,0.8075,0.8063,0.8067,0.8059,0.8059,0.8058,0.8106,0.8112,0.8056,0.8056,0.8056,0.8056,0.8056,0.8056,0.8164,0.8141,0.8144,0.8118,0.8117,0.81,0.8094,0.8088,0.8083,0.8062,0.8051,0.8051,0.8046,0.8032,0.8019,0.8019,0.8013,0.8003,0.8005,0.8049,0.8055,0.8061,0.8067,0.8002,0.8002,0.7958,0.7958,0.7958]}]]